SCP
0 0 0 0 0 0 0 0 0 0 0 0 0 0 0 0 0 0 0 0 0 0 0 0 0 0 0 0 0 0 0 0 0 0 0 0 0 0 0 0 0 0 0
0 0 0 0 0 0 0 0 0 0 0 0 0 0 0 0 0 0 0 0 0 0 0 0 0 0 0 0 0 0 0 0 0 0 0 0 0 0 0 0 0 0 0
0 0 0 0 0 0 0 0 0 0 0 0 0 0 0 0 0 0 0 0 0 0 0 0 0 0 0 0 0 0 0 0 0 0 0 0 0 0 0 0 0 0 0
0 0 0 0 0 0 0 0 0 0 0 0 0 0 0 0 0 0 0 0 0 0 0 0 0 0 0 0 0 0 0 0 0 0 0 0 0 0 0 0 0 0 0
0 0 0 0 0 0 0 0 0 0 0 0 0 0 0 0 0 0 0 0 0 0 0 0 0 0 0 0 0 0 0 0 0 0 0 0 0 0 0 0 0 0 0
0 0 0 0 0 0 0 0 0 0 0 0 0 0 0 0 0 0 0 0 0 0 0 0 0 0 0 0 0 0 0 0 0 0 0 0 0 0 0 0 0 0 0
0 0 0 0 0 0 0 0 0 0 0 0 0 0 0 0 0 0 0 0 0 0 0 0 0 0 0 0 0 0 0 0 0 0 0 0 0 0 0 0 0 0 0
0 0 0 0 0 0 0 0 0 0 0 0 0 0 0 0 0 0 0 0 0 0 0 0 0 0 0 0 0 0 0 0 0 0 0 0 0 0 0 0 0 0 0
0 0 0 0 0 0 0 0 0 0 0 0 0 0 0 0 0 0 0 0 0 0 0 0 0 0 0 0 0 0 0 0 0 0 0 0 0 0 0 0 0 0 0
0 0 0 0 0 0 0 0 0 0 0 0 0 0 0 0 0 0 0 0 0 0 0 0 0 0 0 0 0 0 0 0 0 0 0 0 0 0 0 0 0 0 0
0 0 0 0 0 0 0 0 0 0 0 0 0 0 0 0 0 0 0 0 0 0 0 0 0 0 0 0 0 0 0 0 0 0 0 0 0 0 0 0 0 0 0
0 0 0 0 0 0 0 0 0 0 0 0 0 0 0 0 0 0 0 0 0 0 0 0 0 0 0 0 0 0 0 0 0 0 0 0 0 0 0 0 0 0 0
0 0 0 0 0 0 0 0 0 0 0 0 0 0 0 0 0 0 0 0 0 0 0 0 0 0 0 0 0 0 0 0 0 0 0 0 0 0 0 0 0 0 0
0 0 0 0 0 0 0 0 0 0 0 0 0 0 0 0 0 0 0 0 0 0 0 0 0 0 0 0 0 0 0 0 0 0 0 0 0 0 0 0 0 0 0
0 0 0 0 0 0 0 0 0 0 0 0 0 0 0 0 0 0 0 0 0 0 0 0 0 0 0 0 0 0 0 0 0 0 0 0 0 0 0 0 0 0 0
0 0 0 0 0 0 0 0 0 0 0 0 0 0 0 0 0 0 0 0 0 0 0 0 0 0 0 0 0 0 0 0 0 0 0 0 0 0 0 0 0 0 0
0 0 0 0 0 0 0 0 0 0 0 0 0 0 0 0 0 0 0 0 0 0 0 0 0 0 0 0 0 0 0 0 0 0 0 0 0 0 0 0 0 0 0
0 0 0 0 0 0 0 0 0 0 0 0 0 0 0 0 0 0 0 0 0 0 0 0 0 0 0 0 0 0 0 0 0 0 0 0 0 0 0 0 0 0 0
0 0 0 0 0 0 0 0 0 0 0 0 0 0 0 0 0 0 0 0 0 0 0 0 0 0 0 0 0 0 0 0 0 0 0 0 0 0 0 0 0 0 0
0 0 0 0 0 0 0 0 0 0 0 0 0 0 0 0 0 0 0 0 0 0 0 0 0 0 0 0 0 0 0 0 0 0 0 0 0 0 0 0 0 0 0
0 0 0 0 0 0 0 0 0 0 0 0 0 0 0 0 0 0 0 0 0 0 0 0 0 0 0 0 0 0 0 0 0 0 0 0 0 0 0 0 0 0 0
0 0 0 0 0 0 0 0 0 0 0 0 0 0 0 0 0 0 0 0 0 0 0 0 0 0 0 0 0 0 0 0 0 0 0 0 0 0 0 0 0 0 0
0 0 0 0 0 0 0 0 0 0 0 0 0 0 0 0 0 0 0 0 0 0 0 0 0 0 0 0 0 0 0 0 0 0 0 0 0 0 0 0 0 0 0
0 0 0 0 0 0 0 0 0 0 0 0 0 0 0 0 0 0 0 0 0 0 0 0 0 0 0 0 0 0 0 0 0 0 0 0 0 0 0 0 0 0 0
0 0 0 0 0 0 0 0 0 0 0 0 0 0 0 0 0 0 0 0 0 0 0 0 0 0 0 0 0 0 0 0 0 0 0 0 0 0 0 0 0 0 0
0 0 0 0 0 0 0 0 0 0 0 0 0 0 0 0 0 0 0 0 0 0 0 0 0 0 0 0 0 0 0 0 0 0 0 0 0 0 0 0 0 0 0
Wind_Speed
10 13 17 15 14 14 14 13 13 13 13 13 12 12 13 13 13 13 14 14 14 15 16 15 15 16 16 16 16 16 15 15 16 17 18 18 18 18 18 18 16 12 19
13 15 18 16 15 14 14 14 14 14 13 13 12 12 12 12 13 13 13 13 14 14 15 15 15 15 15 15 15 14 14 13 13 14 16 15 16 17 17 17 16 11 17
15 16 15 16 16 15 15 15 14 14 13 13 12 12 12 12 12 13 13 13 14 14 14 14 14 14 14 14 13 13 12 12 12 13 14 7 9 15 16 16 15 16 15
15 15 14 17 16 15 16 15 15 14 13 13 12 12 12 12 12 12 13 13 13 13 13 13 13 13 14 13 13 12 11 11 11 13 8 7 7 13 14 14 14 14 14
13 13 15 18 16 16 16 15 15 14 13 13 12 11 11 11 11 12 12 12 12 12 12 12 12 12 13 12 12 11 10 10 11 10 6 6 6 11 12 12 12 12 12
12 13 15 18 17 17 16 15 15 14 14 13 12 11 11 11 11 11 11 11 11 11 11 11 11 11 11 11 11 10 9 10 9 6 6 6 5 9 11 10 10 10 10
12 14 15 18 18 17 16 16 15 14 13 13 12 11 11 10 10 10 10 10 10 10 10 10 10 10 10 10 9 8 8 8 4 4 5 5 5 9 9 9 9 8 8
12 14 14 18 17 17 16 16 15 15 14 13 12 11 11 10 10 9 9 8 8 8 8 8 8 8 8 8 7 6 6 7 4 4 4 5 6 8 8 8 8 8 7
12 14 12 11 12 15 15 16 16 15 14 13 12 11 11 10 9 9 8 7 7 6 6 6 6 5 5 5 4 4 5 7 4 1 4 4 6 7 8 7 7 7 7
11 13 13 11 10 9 10 14 15 14 14 13 12 11 10 9 9 9 8 6 5 4 4 4 3 3 2 1 1 3 5 7 4 1 3 3 6 7 8 8 8 8 8
10 11 13 12 11 10 10 12 12 13 12 12 11 12 9 5 6 6 7 7 5 3 3 2 1 1 2 3 4 5 5 3 1 2 3 4 5 7 8 9 9 9 9
10 11 12 12 12 11 10 10 7 7 7 7 7 7 5 4 4 5 8 7 5 4 4 4 4 4 5 2 4 6 3 3 2 1 3 4 3 7 9 10 10 10 10
11 10 11 12 12 11 7 8 6 5 6 6 8 7 5 4 3 4 3 4 4 5 3 4 4 4 3 1 1 2 2 1 1 0 3 4 1 6 9 10 10 10 10
12 11 10 11 11 10 9 8 6 5 5 5 6 7 4 3 3 3 3 3 3 2 2 2 2 3 2 2 2 2 2 1 1 0 3 4 1 4 8 9 10 10 10
12 12 11 11 11 10 9 7 7 6 7 6 5 6 6 4 4 3 3 3 2 2 2 2 2 2 1 1 2 2 3 3 3 2 1 4 3 3 6 8 9 9 9
13 13 11 11 11 10 8 7 7 6 6 6 6 6 6 5 4 3 3 3 2 2 1 1 1 1 1 1 2 3 3 3 3 3 1 2 3 2 3 6 8 8 8
13 13 12 12 11 11 10 8 7 6 6 6 6 6 6 5 5 4 3 3 2 2 2 1 1 1 1 1 2 3 2 3 3 3 2 1 1 2 1 3 5 7 8
11 13 14 11 12 12 10 9 6 7 7 6 6 6 7 6 5 4 3 3 3 2 1 1 0 0 1 1 2 2 2 3 3 2 2 1 1 2 2 1 2 4 7
10 13 14 12 12 12 11 8 7 7 7 6 6 6 7 7 6 5 3 3 3 2 2 1 1 0 1 2 2 3 3 2 2 2 2 0 1 1 1 3 2 3 6
9 12 13 13 11 10 9 7 6 6 6 6 6 6 8 6 6 5 3 3 3 3 2 1 1 1 0 0 2 4 4 3 1 1 1 1 0 1 1 1 1 2 5
9 10 13 13 12 10 9 9 8 7 6 5 5 7 8 7 6 5 3 3 3 3 3 2 2 0 0 1 2 3 4 2 1 1 0 1 1 0 1 1 1 1 2
10 10 12 13 13 11 9 8 7 6 5 5 5 6 7 7 7 5 5 4 4 3 3 2 2 1 0 1 1 1 4 4 2 1 1 0 1 1 1 2 2 2 2
9 10 10 12 12 12 10 7 6 5 4 4 5 5 6 7 7 6 5 5 4 4 3 3 3 2 1 0 1 2 1 2 3 3 2 1 1 1 2 2 2 3 3
8 9 9 10 12 12 12 11 12 9 7 6 6 5 6 7 7 7 6 6 5 4 4 3 3 2 2 1 0 1 1 2 0 3 4 2 2 3 3 3 3 3 3
7 8 8 9 10 11 12 12 12 8 6 6 7 8 6 6 7 7 6 6 5 4 4 4 3 2 2 2 1 1 0 0 1 2 4 4 3 3 3 3 3 3 3
6 7 7 9 9 10 11 12 12 11 10 10 10 9 7 5 5 7 7 6 5 4 5 4 3 3 2 1 1 1 2 1 1 1 3 4 4 4 4 4 3 3 3
Wind_Direction
133 144 154 151 148 143 137 131 122 114 108 102 96 91 86 83 80 76 73 71 69 68 68 67 66 66 65 65 64 63 61 60 60 62 61 57 58 57 55 54 54 48 52
137 143 154 152 149 146 139 131 124 119 113 107 102 95 91 87 84 80 78 75 73 71 70 69 68 68 66 65 64 64 62 60 57 61 63 57 57 58 57 54 54 53 53
135 142 154 152 149 144 137 131 125 122 117 112 106 100 96 91 87 84 81 78 76 74 73 71 70 69 67 65 65 64 61 57 52 58 62 54 51 57 56 55 54 53 52
137 143 153 152 150 147 140 135 129 127 122 117 111 106 100 95 90 87 84 80 78 76 74 72 71 70 68 66 64 62 59 53 45 56 54 47 40 54 54 53 52 52 51
137 144 149 154 154 149 143 138 135 132 127 123 117 112 106 100 95 90 86 83 82 80 78 75 72 70 69 67 64 60 54 43 44 53 53 51 34 49 54 51 50 49 49
139 140 146 156 155 151 146 142 141 138 134 129 125 119 112 105 100 95 91 88 86 84 81 78 75 71 70 68 64 58 45 34 53 49 53 48 25 40 49 49 46 45 45
143 138 148 157 157 155 151 147 144 142 139 136 131 126 119 112 107 102 98 94 90 86 83 80 77 74 71 67 61 52 31 11 67 69 69 57 22 32 39 39 35 35 37
142 138 150 160 160 159 156 152 150 148 146 143 140 134 129 123 119 113 106 102 96 91 86 82 79 75 69 64 56 39 11 357 25 66 86 70 28 20 25 26 21 20 21
141 141 149 159 161 163 160 157 155 155 152 149 148 143 138 135 132 125 119 112 105 97 90 84 79 73 66 60 49 16 342 331 327 354 87 71 22 9 8 8 3 360 359
143 146 154 162 163 162 159 159 159 159 158 157 153 148 147 149 145 142 137 129 123 115 105 96 85 72 67 58 10 313 306 309 278 135 92 70 24 359 354 352 349 344 341
153 154 159 165 165 164 163 163 160 161 163 159 155 153 153 162 161 159 146 150 154 151 145 140 156 230 248 239 240 263 288 274 272 110 108 86 26 352 342 339 338 335 333
169 168 164 167 166 166 166 159 164 166 163 164 159 163 174 174 159 156 147 166 180 192 203 209 226 247 251 224 220 242 265 293 341 108 125 109 30 345 334 332 330 329 328
173 174 169 166 165 166 160 161 168 167 164 178 168 170 175 156 145 143 155 173 198 209 216 217 231 234 234 196 213 243 275 340 304 0 139 135 36 334 326 324 324 324 324
175 178 172 164 164 165 161 165 167 163 168 176 171 169 164 153 158 161 171 178 190 194 197 212 234 247 249 241 244 273 302 293 289 315 162 169 214 322 320 319 322 323 324
176 175 175 168 166 165 162 166 169 168 168 171 167 170 166 158 168 176 183 175 183 186 187 214 245 268 288 327 328 321 314 314 309 314 168 192 209 295 315 321 323 324 327
175 173 173 172 168 165 166 167 169 168 164 168 165 171 171 164 172 175 180 169 183 182 193 214 257 286 325 330 309 300 298 308 314 323 315 203 205 244 309 326 330 330 334
172 170 172 175 171 169 170 170 168 165 163 166 166 174 174 170 168 168 174 178 185 179 181 196 302 351 324 312 301 307 320 319 316 319 335 340 180 178 199 336 340 341 342
168 168 172 175 176 173 172 172 170 168 168 167 167 173 176 173 168 168 173 185 174 155 159 168 198 322 307 310 315 316 308 299 298 317 320 319 78 121 148 157 344 339 339
173 167 169 173 177 174 171 171 171 168 169 168 166 166 172 174 172 168 176 176 159 152 157 161 139 123 340 330 312 298 290 288 297 313 312 351 102 118 144 175 225 293 323
177 167 166 170 175 170 166 169 169 168 168 164 162 165 167 172 174 168 165 165 151 146 152 155 156 147 165 328 316 300 280 255 251 261 320 9 103 155 166 175 212 278 308
171 165 166 169 175 171 171 174 175 176 167 162 162 165 166 166 168 162 155 155 143 148 159 147 129 104 18 41 357 319 305 263 177 150 50 13 358 26 3 340 329 342 324
171 170 168 171 175 176 175 174 170 163 161 158 155 162 164 164 161 159 157 154 146 140 134 130 125 116 87 93 92 355 341 341 352 339 346 348 1 9 340 333 337 345 336
175 176 175 174 174 173 165 158 152 141 134 147 160 165 166 161 157 155 158 148 145 145 148 142 135 139 144 108 114 120 94 299 321 314 303 324 351 341 317 319 326 333 327
178 171 173 172 171 170 165 167 167 169 168 171 164 161 161 158 153 152 149 144 144 143 142 145 137 138 133 152 103 122 165 165 136 314 315 323 343 326 307 310 315 307 307
165 163 167 168 169 168 169 170 173 172 166 151 153 157 158 152 149 149 147 144 146 144 141 136 132 135 141 152 146 129 326 7 201 212 284 305 318 303 309 302 290 286 287
151 153 160 165 170 169 171 174 178 174 167 159 161 163 160 153 150 152 148 146 146 141 139 140 140 143 145 143 154 164 169 186 222 221 257 287 294 288 296 281 276 269 263